sat.trackr.live / text

‹ back to catalog

2022-023E

NORAD 51950 · 2022-023E

PAYLOAD ACTIVE UNKNOWN

§ Identity

Operator
Country
PRC
Launch date
2022-03-05
Launch site
XICLF
Launch vehicle
Mass (kg)
RCS (m²)

External: N2YO · Heavens-Above · Gunter

§ Orbital elements

Epoch: 2026-09-20T21:47:29.931648Z

Period
106.17 min
Inclination
63.4598°
Eccentricity
0.0167959
Mean motion
13.56298765 rev/d
Perigee alt
924.4 km
Apogee alt
1,173.9 km
Semi-major
7,427.3 km
B*
2.9394e-5
RAAN
63.3577°
Arg perigee
348.5159°
Mean anomaly
11.2061°
Rev number
23,501

§ Raw data

2022-023E1 51950U 22023E   26263.90798532 -.00000070  00000+0  29394-4 0  99992 51950  63.4598  63.3577 0167959 348.5159  11.2061 13.56298765235014

JSON: /api/v1/satellites/51950 · /tle

For live sub-satellite position, see the globe view (requires WebGL).

§ Visibility from observer

Set your observer location to see the next 7 days of passes ≥ 10°. The values pass through the URL so the page stays shareable.

No JS? Fill the form by hand. The geolocation button needs JavaScript.